Regional Weather Roundup
Issued by NWS State College, PA

Home | Current Version | Previous Version | Graphics & Text | Print | Product List | Glossary On
Versions: 1 2 3 4 5 6 7 8 9 10 11 12 13 14 15 16 17 18 19 20 21 22 23 24 25 26 27 28 29 30 31 32 33 34 35 36 37 38 39 40 41 42 43 44 45 46 47 48 49 50
300
ASUS41 KCTP 221210
RWRCTP

REGIONAL WEATHER ROUNDUP
NATIONAL WEATHER SERVICE STATE COLLEGE PA
700 AM EST WED NOV 22 2017

Note: "fair" indicates few or no clouds below 12,000 feet with no
significant weather and/or obstructions to visibility.

* = STATION THAT DOES NOT REPORT PRECIPITATION /E.G. RAIN...SNOW...ETC/
    THUNDER OR FOG.

PAZ002>004-007>009-013>016-020>023-029>032-221300-
WESTERN PENNSYLVANIA

CITY           SKY/WX    TMP DP  RH WIND       PRES   REMARKS
ERIE           CLOUDY    35  28  75 NW10G21   30.11R
MEADVILLE      NOT AVBL
FRANKLIN*      MIX PCPN  32  30  92 NW9       30.06R
NEW CASTLE     LGT RAIN  34  32  93 NW8       30.11R
BEAVER COUNTY  NOT AVBL
BUTLER*        CLOUDY    35  33  92 VRB6      30.08R
PITTSBURGH INT CLOUDY    36  35  96 NW9       30.08R
PITTSBURGH     CLOUDY    36  32  85 NW8G21    30.06R
INDIANA*       CLOUDY    36  36 100 NW8G15    30.06S
LATROBE        CLOUDY    36  36 100 W8        30.07R
WASHINGTON CO* CLOUDY    35  32  88 W10       30.12
$$

PAZ004>006-010>012-017>019-024>028-033>037-041-042-045-046-049>053-221300-
CENTRAL PENNSYLVANIA

CITY           SKY/WX    TMP DP  RH WIND       PRES   REMARKS
BRADFORD       CLOUDY    32  31  96 NW12      29.98R
DUBOIS         CLOUDY    33  30  88 NW10      29.99R
CLEARFIELD     CLOUDY    37  33  85 W6        29.99R
JOHNSTOWN      CLOUDY    34  33  96 NW13G18   29.98R
ALTOONA        CLOUDY    43  35  73 NW13G22   30.00R
STATE COLLEGE  CLOUDY    43  34  70 NW12G23   29.97R
WILLIAMSPORT   CLOUDY    40  33  76 CALM      29.94R
SELINSGROVE    CLOUDY    37  35  92 CALM      29.95R
FT INDIANTOWN  CLOUDY    38  38 100 N3        29.93R
CAPITAL CITY   CLOUDY    44  36  73 CALM      29.94R
HARRISBURG     CLOUDY    43  38  82 N5        29.93R
YORK           CLOUDY    44  41  89 VRB3      29.93R
$$

PAZ038>040-043-044-047-048-054-055-060>062-067>071-221300-
EASTERN PENNSYLVANIA

CITY           SKY/WX    TMP DP  RH WIND       PRES   REMARKS
SCRANTON       CLOUDY    39  36  89 SE3       29.92R
MOUNT POCONO   CLOUDY    41  40  96 W8        29.89R
ALLENTOWN      LGT RAIN  39  34  82 CALM      29.93R
QUAKERTOWN*    CLOUDY    41  41 100 CALM      29.92R
READING        CLOUDY    41  40  96 CALM      29.91R
LANCASTER      CLOUDY    44  43  96 W5        29.92R
COATESVILLE    CLOUDY    48  48 100 W5        29.92S
POTTSTOWN      LGT RAIN  48  47  96 CALM      29.92R
BLUE BELL      CLOUDY    46  46 100 CALM      29.93R
DOYLESTOWN     RAIN      45  44  97 CALM      29.91R
WILLOW GROVE   NOT AVBL
NORTH PHILA    LGT RAIN  51  48  89 CALM      29.93R
PHILADELPHIA   LGT RAIN  51  49  92 W6        29.91F
$$




USA.gov is the U.S. government's official web portal to all federal, state and local government web resources and services.